Meteo Giornale » Osservazioni meteo Italia » Verona-Villafranca

ore: 10:50 - Osservazioni Meteo Verona-Villafranca
Lat. 45° 23' N Lon. 10° 52' E Alt. 67 metri s.l.m.

poco_nuvoloso Europe/Rome

16 °C

Poco Nuvoloso

Temp. 24 Ore

8 °C

16 °C

Est

7.4 Km/h

Dew point 11 °C

Umidità 72 %

Visibilità  6 Km

Il sole sorge alle ore 06:11

Il sole tramonta alle ore 18:34

Data e Ora Cielo e Fenomeni T °C DP °C Um. % Pres. hPa Vis. km Vento km/h
Oggi h: 10:50 poco_nuvoloso Poco Nuvoloso 16 11 72 1017 6 E 7.4
Oggi h: 10:20 poco_nuvoloso Poco Nuvoloso 15 11 76 1017 6 E/NE 7.4
Oggi h: 09:50 poco_nuvoloso Poco Nuvoloso 14 11 82 1017 6 N 3.7
Oggi h: 09:20 foschia Foschia 13 11 87 1017 4 N 5.5
Oggi h: 08:50 foschia Foschia 12 11 93 1017 4 N 3.7
Oggi h: 08:20 nebbia Nebbia 11 10 93 1017 0.8 N 3.7
Oggi h: 07:50 nebbia Nebbia 10 10 100 1016 0.3 N 5.5
Oggi h: 07:20 nebbia Nebbia 9 9 100 1016 0.3 N 3.7
Oggi h: 06:50 nebbia Nebbia 8 7 93 1015 0.9 N 3.7
Oggi h: 05:50 nuvoloso Nuvoloso 8 8 100 1015 0.9 N 3.7
Oggi h: 05:20 poco_nuvoloso Poco Nuvoloso 8 8 100 1015 0.9 N 3.7
Oggi h: 04:50 nuvoloso Nuvoloso 9 9 100 1015 7 N 3.7
Oggi h: 04:20 nuvoloso Nuvoloso 9 9 100 1015 7 N 3.7
Oggi h: 03:50 nuvoloso Nuvoloso 9 9 100 1015 7 N 3.7
Oggi h: 03:20 nuvoloso Nuvoloso 9 9 100 1015 7 N 3.7
Oggi h: 02:50 nuvoloso Nuvoloso 10 9 93 1015 7 N 3.7
Oggi h: 02:20 nuvoloso Nuvoloso 10 9 93 1015 7 N 3.7
Oggi h: 01:50 molto_nuvoloso Molto Nuvoloso 10 9 93 1015 7 N 3.7
Oggi h: 01:20 molto_nuvoloso Molto Nuvoloso 12 10 87 1015 7 N 3.7
Oggi h: 00:50 molto_nuvoloso Molto Nuvoloso 11 10 93 1015 7 N 3.7
Oggi h: 00:20 molto_nuvoloso Molto Nuvoloso 12 10 87 1015 7 E/NE 7.4
Ieri h: 23:50 molto_nuvoloso Molto Nuvoloso 13 10 81 1015 8 E/NE 13
Ieri h: 23:20 molto_nuvoloso Molto Nuvoloso 13 10 81 1014 8 E 9.3
Ieri h: 22:50 nuvoloso Nuvoloso 13 10 81 1014 10 E 16.7
Ieri h: 22:20 nuvoloso Nuvoloso 13 10 81 1014 10 E 16.7
Ieri h: 21:50 nuvoloso Nuvoloso 13 10 81 1014 7 E 16.7
Ieri h: 21:20 nuvoloso Nuvoloso 13 10 81 1014 7 E 16.7
Ieri h: 20:50 nuvoloso Nuvoloso 13 10 81 1014 7 E 16.7
Ieri h: 20:20 nuvoloso Nuvoloso 13 10 81 1013 7 E 16.7
Ieri h: 19:50 nuvoloso Nuvoloso 13 10 81 1013 7 E 16.7
Ieri h: 19:20 nuvoloso Nuvoloso 13 10 81 1013 6 E 13
Ieri h: 18:50 nuvoloso Nuvoloso 13 10 81 1013 6 E 13
Ieri h: 18:20 nuvoloso Nuvoloso 13 10 81 1013 6 E 16.7
Ieri h: 17:50 nuvoloso Nuvoloso 14 10 76 1013 7 E 14.8
Ieri h: 17:20 molto_nuvoloso Molto Nuvoloso 14 10 76 1013 6 E 16.7
Ieri h: 16:50 molto_nuvoloso Molto Nuvoloso 14 10 76 1013 6 E 14.8
Ieri h: 16:20 molto_nuvoloso Molto Nuvoloso 15 10 72 1013 6 E 16.7
Ieri h: 15:50 molto_nuvoloso Molto Nuvoloso 15 10 72 1013 6 E 14.8
Ieri h: 15:20 molto_nuvoloso Molto Nuvoloso 15 10 72 1012 6 E 14.8
Ieri h: 14:50 molto_nuvoloso Molto Nuvoloso 15 10 72 1012 6 E 14.8
Ieri h: 14:20 molto_nuvoloso Molto Nuvoloso 15 10 72 1012 6 E 14.8
Ieri h: 13:50 molto_nuvoloso Molto Nuvoloso 15 11 76 1012 6 E 16.7
Ieri h: 13:20 molto_nuvoloso Molto Nuvoloso 15 10 72 1013 6 E 16.7
Ieri h: 12:50 foschia Foschia 15 11 76 1013 5 E 16.7
Ieri h: 12:20 foschia Foschia 15 10 72 1013 5 E/SE 14.8
Ieri h: 11:50 foschia Foschia 14 10 76 1013 5 E 13
Ieri h: 11:20 foschia Foschia 15 11 76 1012 3 E 14.8
Ieri h: 10:50 foschia Foschia 14 10 76 1013 3 E 11.1